EW5311 Weather Reports


time (UTC)temp
C
wind
direction
speed
KPH
gust
KPH
rain 1hr
cm
rain 24hr
cm
rain mn
cm
humidity
%
barometer
mb
20260504030025 5 266 0.0 1.6 0.00 0.00 0.00 79 1011.5
20260504024555 5 266 0.0 1.6 0.00 0.00 0.00 78 1011.6
20260504023102 5 264 0.0 3.2 0.00 0.00 0.00 74 1011.5
20260504021554 6 266 0.0 1.6 0.00 0.00 0.00 69 1011.6
20260504020058 6 266 0.0 1.6 0.00 0.00 0.00 69 1011.6
20260504014553 7 266 0.0 3.2 0.00 0.00 0.00 65 1011.4
20260504013106 7 266 0.0 3.2 0.00 0.00 0.00 62 1011.2
20260504011552 9 266 0.0 4.8 0.00 0.00 0.00 57 1011.1
20260504010104 10 266 0.0 4.8 0.00 0.00 0.00 53 1011.1
20260504004537 11 266 1.6 4.8 0.00 0.00 0.00 50 1011.0
20260504003036 11 258 1.6 9.7 0.00 0.00 0.00 48 1010.9
20260504001521 11 187 3.2 12.9 0.00 0.00 0.00 45 1011.0
20260504000020 12 258 3.2 12.9 0.00 0.00 0.00 44 1010.9
20260503234535 12 258 4.8 19.3 0.00 0.00 0.00 42 1010.9
20260503233019 12 293 8.0 19.3 0.00 0.00 0.00 42 1010.8
20260503231519 12 291 9.7 27.4 0.00 0.00 0.00 41 1011.0
20260503230019 12 275 11.3 19.3 0.00 0.00 0.00 40 1011.0
20260503224518 12 263 9.7 20.9 0.00 0.00 0.00 41 1010.9
20260503223018 12 290 8.0 27.4 0.00 0.00 0.00 41 1011.0
20260503221516 12 212 11.3 24.1 0.00 0.00 0.00 40 1011.0
20260503220016 12 231 12.9 25.7 0.00 0.00 0.00 40 1011.1
20260503214600 12 245 16.1 38.6 0.00 0.00 0.00 39 1011.2
20260503213107 12 326 20.9 33.8 0.00 0.00 0.00 39 1011.1
20260503210048 12 264 12.9 40.2 0.00 0.00 0.00 40 1011.2
20260503204542 13 221 14.5 29.0 0.00 0.00 0.00 39 1011.1
20260503203024 12 269 11.3 32.2 0.00 0.00 0.00 40 1011.3
20260503201521 12 229 14.5 37.0 0.00 0.00 0.00 40 1011.4
20260503200020 12 240 12.9 37.0 0.00 0.00 0.00 41 1011.6
20260503194522 12 271 9.7 30.6 0.00 0.00 0.00 41 1011.9
20260503193027 12 239 11.3 29.0 0.00 0.00 0.00 42 1011.9
20260503191517 12 232 12.9 32.2 0.00 0.00 0.00 41 1012.2
20260503190014 12 280 12.9 30.6 0.00 0.00 0.00 42 1012.3
20260503184559 11 287 11.3 30.6 0.00 0.00 0.00 41 1012.4
20260503183111 11 275 12.9 27.4 0.00 0.00 0.00 41 1012.7
20260503181534 11 308 19.3 32.2 0.00 0.00 0.00 41 1012.8
20260503180040 11 278 17.7 33.8 0.00 0.00 0.00 40 1012.9
20260503174514 11 297 14.5 20.9 0.00 0.00 0.00 40 1012.9
20260503173015 11 312 8.0 25.7 0.00 0.00 0.00 41 1013.1
20260503171610 11 308 14.5 29.0 0.00 0.00 0.00 41 1013.2
20260503140139 6 265 9.7 30.6 0.00 0.00 0.00 64 1014.8
20260503120125 1 312 8.0 14.5 0.00 0.00 0.00 84 1015.0
20260503081558 -1 291 3.2 4.8 0.00 0.00 0.00 91 1014.0
20260503071551 0 291 1.6 4.8 0.00 0.03 0.00 86 1013.7
20260503054547 1 293 3.2 4.8 0.00 0.03 0.00 83 1014.0
20260503053038 1 292 3.2 4.8 0.00 0.03 0.00 83 1014.0
20260503051533 1 292 0.0 4.8 0.00 0.03 0.00 82 1014.2
20260503050033 1 293 3.2 4.8 0.00 0.03 0.03 82 1014.2
20260503044533 1 291 3.2 6.4 0.00 0.03 0.03 82 1014.3
20260503043032 1 291 3.2 6.4 0.00 0.03 0.03 81 1014.4
20260503041532 1 291 1.6 4.8 0.00 0.03 0.03 78 1014.4
20260503040039 1 291 1.6 4.8 0.00 0.03 0.03 77 1014.5
20260503034544 2 291 1.6 4.8 0.00 0.03 0.03 76 1014.5
20260503033038 2 291 1.6 4.8 0.00 0.03 0.03 75 1014.4
20260503031537 2 289 3.2 6.4 0.00 0.03 0.03 74 1014.4